| time (UTC) | temp F | wind direction | speed MPH | gust MPH | rain 1hr in | rain 24hr in | rain mn in | humidity % | barometer mb |
| 20260510220045 | 74 | 320 | 6.0 | 12.0 | 0.00 | 0.06 | 0.06 | 60 | 1014.0 |
| 20260510215545 | 74 | 29 | 6.0 | 12.0 | 0.00 | 0.06 | 0.06 | 60 | 1013.9 |
| 20260510215046 | 74 | 330 | 5.0 | 13.0 | 0.00 | 0.06 | 0.06 | 60 | 1013.9 |
| 20260510215043 | 74 | 27 | 5.0 | 13.0 | 0.00 | 0.06 | 0.06 | 60 | 1013.9 |
| 20260510214544 | 74 | 66 | 7.0 | 13.0 | 0.00 | 0.06 | 0.06 | 61 | 1014.0 |
| 20260510214044 | 75 | 355 | 8.0 | 12.0 | 0.00 | 0.06 | 0.06 | 60 | 1013.7 |
| 20260510213543 | 75 | 36 | 6.0 | 11.0 | 0.00 | 0.06 | 0.06 | 60 | 1013.5 |
| 20260510213047 | 75 | 5 | 5.0 | 10.0 | 0.00 | 0.06 | 0.06 | 59 | 1013.5 |
| 20260510212542 | 75 | 306 | 6.0 | 11.0 | 0.00 | 0.06 | 0.06 | 60 | 1013.6 |
| 20260510212044 | 75 | 360 | 6.0 | 11.0 | 0.00 | 0.06 | 0.06 | 60 | 1013.5 |
| 20260510211516 | 75 | 347 | 6.0 | 10.0 | 0.00 | 0.06 | 0.06 | 60 | 1013.5 |
| 20260510211013 | 76 | 321 | 5.0 | 9.0 | 0.00 | 0.06 | 0.06 | 60 | 1013.5 |
| 20260510210512 | 76 | 302 | 5.0 | 9.0 | 0.00 | 0.06 | 0.06 | 59 | 1013.3 |
| 20260510210015 | 75 | 360 | 6.0 | 8.0 | 0.00 | 0.06 | 0.06 | 60 | 1013.2 |
| 20260510205512 | 75 | 9 | 3.0 | 8.0 | 0.00 | 0.06 | 0.06 | 62 | 1013.2 |
| 20260510205012 | 74 | 336 | 5.0 | 9.0 | 0.00 | 0.06 | 0.06 | 62 | 1013.2 |
| 20260510204513 | 74 | 94 | 6.0 | 10.0 | 0.00 | 0.06 | 0.06 | 61 | 1013.2 |
| 20260510204009 | 75 | 355 | 6.0 | 11.0 | 0.00 | 0.06 | 0.06 | 61 | 1013.2 |
| 20260510203509 | 75 | 17 | 3.0 | 13.0 | 0.00 | 0.06 | 0.06 | 61 | 1013.2 |
| 20260510203016 | 75 | 21 | 6.0 | 12.0 | 0.00 | 0.06 | 0.06 | 60 | 1013.2 |
| 20260510202509 | 75 | 5 | 5.0 | 11.0 | 0.01 | 0.06 | 0.06 | 59 | 1013.2 |
| 20260510202009 | 76 | 5 | 8.0 | 11.0 | 0.01 | 0.06 | 0.06 | 59 | 1013.2 |
| 20260510201508 | 76 | 5 | 2.0 | 9.0 | 0.01 | 0.06 | 0.06 | 60 | 1013.2 |
| 20260510201010 | 76 | 332 | 5.0 | 10.0 | 0.01 | 0.06 | 0.06 | 60 | 1013.2 |
| 20260510200509 | 76 | 329 | 5.0 | 10.0 | 0.01 | 0.06 | 0.06 | 59 | 1013.3 |
| 20260510200009 | 76 | 312 | 3.0 | 7.0 | 0.01 | 0.06 | 0.06 | 59 | 1013.3 |
| 20260510195508 | 76 | 306 | 2.0 | 7.0 | 0.01 | 0.06 | 0.06 | 59 | 1013.3 |
| 20260510195011 | 76 | 299 | 4.0 | 8.0 | 0.01 | 0.06 | 0.06 | 59 | 1013.4 |
| 20260510194506 | 76 | 259 | 1.0 | 10.0 | 0.01 | 0.06 | 0.06 | 58 | 1013.4 |
| 20260510194006 | 77 | 267 | 6.0 | 10.0 | 0.01 | 0.06 | 0.06 | 57 | 1013.4 |
| 20260510193505 | 77 | 360 | 4.0 | 13.0 | 0.01 | 0.06 | 0.06 | 58 | 1013.5 |
| 20260510193006 | 76 | 321 | 7.0 | 13.0 | 0.02 | 0.06 | 0.06 | 60 | 1013.5 |
| 20260510192505 | 76 | 355 | 2.0 | 7.0 | 0.05 | 0.05 | 0.05 | 61 | 1013.5 |
| 20260510192005 | 76 | 19 | 2.0 | 7.0 | 0.05 | 0.05 | 0.05 | 63 | 1013.5 |
| 20260510191506 | 75 | 229 | 0.0 | 5.0 | 0.05 | 0.05 | 0.05 | 70 | 1013.5 |
| 20260510191005 | 74 | 229 | 2.0 | 7.0 | 0.05 | 0.05 | 0.05 | 66 | 1013.5 |
| 20260510190504 | 74 | 300 | 2.0 | 7.0 | 0.05 | 0.05 | 0.05 | 64 | 1013.6 |
| 20260510190011 | 74 | 237 | 2.0 | 5.0 | 0.05 | 0.05 | 0.05 | 70 | 1013.6 |
| 20260510185504 | 72 | 289 | 2.0 | 5.0 | 0.05 | 0.05 | 0.05 | 74 | 1013.7 |
| 20260510185004 | 71 | 250 | 2.0 | 4.0 | 0.05 | 0.05 | 0.05 | 80 | 1013.7 |
| 20260510184534 | 70 | 223 | 0.0 | 9.0 | 0.05 | 0.05 | 0.05 | 79 | 1013.7 |
| 20260510184034 | 70 | 217 | 4.0 | 11.0 | 0.05 | 0.05 | 0.05 | 72 | 1013.7 |
| 20260510183534 | 71 | 219 | 6.0 | 9.0 | 0.05 | 0.05 | 0.05 | 70 | 1013.9 |
| 20260510183033 | 73 | 254 | 5.0 | 9.0 | 0.04 | 0.04 | 0.04 | 65 | 1013.8 |
| 20260510182534 | 74 | 257 | 5.0 | 9.0 | 0.00 | 0.00 | 0.00 | 62 | 1013.6 |
| 20260510182032 | 74 | 325 | 4.0 | 11.0 | 0.00 | 0.00 | 0.00 | 59 | 1013.7 |
| 20260510181531 | 75 | 306 | 7.0 | 11.0 | 0.00 | 0.00 | 0.00 | 59 | 1013.7 |
| 20260510181029 | 75 | 5 | 6.0 | 10.0 | 0.00 | 0.00 | 0.00 | 59 | 1013.7 |
| 20260510180530 | 75 | 360 | 5.0 | 9.0 | 0.00 | 0.00 | 0.00 | 58 | 1013.6 |
| 20260510180032 | 75 | 355 | 3.0 | 9.0 | 0.00 | 0.00 | 0.00 | 58 | 1013.6 |
| 20260510175528 | 76 | 29 | 3.0 | 7.0 | 0.00 | 0.00 | 0.00 | 56 | 1013.6 |
| 20260510175029 | 76 | 270 | 1.0 | 12.0 | 0.00 | 0.00 | 0.00 | 56 | 1013.7 |
| 20260510174528 | 77 | 338 | 6.0 | 13.0 | 0.00 | 0.00 | 0.00 | 55 | 1013.7 |
| 20260510174028 | 77 | 311 | 6.0 | 13.0 | 0.00 | 0.00 | 0.00 | 55 | 1013.7 |
| 20260510173527 | 77 | 315 | 9.0 | 13.0 | 0.00 | 0.00 | 0.00 | 54 | 1013.6 |
| 20260510173029 | 78 | 223 | 6.0 | 10.0 | 0.00 | 0.00 | 0.00 | 54 | 1013.6 |
| 20260510172527 | 77 | 252 | 4.0 | 10.0 | 0.00 | 0.00 | 0.00 | 54 | 1013.6 |
| 20260510172028 | 76 | 255 | 7.0 | 11.0 | 0.00 | 0.00 | 0.00 | 55 | 1013.6 |
| 20260510171528 | 76 | 242 | 4.0 | 11.0 | 0.00 | 0.00 | 0.00 | 55 | 1013.5 |
| 20260510171025 | 77 | 244 | 6.0 | 12.0 | 0.00 | 0.00 | 0.00 | 54 | 1013.6 |
| 20260510170525 | 78 | 278 | 5.0 | 10.0 | 0.00 | 0.00 | 0.00 | 53 | 1013.6 |
| 20260510170023 | 77 | 321 | 5.0 | 9.0 | 0.00 | 0.00 | 0.00 | 54 | 1013.6 |
| 20260510165522 | 76 | 259 | 6.0 | 9.0 | 0.00 | 0.00 | 0.00 | 56 | 1013.6 |
| 20260510165021 | 76 | 304 | 4.0 | 8.0 | 0.00 | 0.00 | 0.00 | 56 | 1013.7 |
| 20260510164521 | 75 | 321 | 4.0 | 9.0 | 0.00 | 0.00 | 0.00 | 57 | 1013.7 |
| 20260510164019 | 74 | 311 | 5.0 | 9.0 | 0.00 | 0.00 | 0.00 | 58 | 1013.6 |
| 20260510163519 | 73 | 279 | 4.0 | 8.0 | 0.00 | 0.00 | 0.00 | 59 | 1013.7 |
| 20260510163019 | 72 | 275 | 3.0 | 8.0 | 0.00 | 0.00 | 0.00 | 61 | 1013.7 |
| 20260510162518 | 72 | 315 | 5.0 | 8.0 | 0.00 | 0.00 | 0.00 | 61 | 1013.7 |
| 20260510162019 | 72 | 250 | 5.0 | 10.0 | 0.00 | 0.00 | 0.00 | 60 | 1013.9 |
| 20260510161524 | 73 | 311 | 5.0 | 9.0 | 0.00 | 0.00 | 0.00 | 60 | 1013.9 |
| 20260510161018 | 73 | 286 | 5.0 | 10.0 | 0.00 | 0.00 | 0.00 | 59 | 1013.9 |
| 20260510160514 | 74 | 319 | 7.0 | 10.0 | 0.00 | 0.00 | 0.00 | 57 | 1013.8 |
| 20260510160018 | 75 | 321 | 6.0 | 12.0 | 0.00 | 0.00 | 0.00 | 56 | 1013.8 |
| 20260510155513 | 75 | 307 | 9.0 | 12.0 | 0.00 | 0.00 | 0.00 | 56 | 1013.7 |
| 20260510155012 | 74 | 360 | 4.0 | 9.0 | 0.00 | 0.00 | 0.00 | 57 | 1013.6 |
| 20260510154510 | 74 | 259 | 4.0 | 9.0 | 0.00 | 0.00 | 0.00 | 59 | 1013.6 |
| 20260510154009 | 73 | 279 | 2.0 | 9.0 | 0.00 | 0.00 | 0.00 | 60 | 1013.6 |
| 20260510153507 | 72 | 309 | 5.0 | 8.0 | 0.00 | 0.00 | 0.00 | 60 | 1013.6 |
| 20260510153007 | 71 | 293 | 5.0 | 8.0 | 0.00 | 0.00 | 0.00 | 62 | 1013.7 |
| 20260510152506 | 71 | 285 | 4.0 | 7.0 | 0.00 | 0.00 | 0.00 | 63 | 1013.7 |
| 20260510152005 | 71 | 290 | 3.0 | 9.0 | 0.00 | 0.00 | 0.00 | 63 | 1013.6 |
| 20260510151518 | 71 | 254 | 5.0 | 9.0 | 0.00 | 0.00 | 0.00 | 62 | 1013.6 |
| 20260510151004 | 71 | 261 | 3.0 | 8.0 | 0.00 | 0.00 | 0.00 | 62 | 1013.6 |
| 20260510150503 | 71 | 242 | 4.0 | 10.0 | 0.00 | 0.00 | 0.00 | 62 | 1013.6 |
| 20260510150003 | 71 | 267 | 5.0 | 15.0 | 0.00 | 0.00 | 0.00 | 62 | 1013.5 |
| 20260510145502 | 72 | 256 | 7.0 | 15.0 | 0.00 | 0.00 | 0.00 | 62 | 1013.5 |
| 20260510145002 | 71 | 254 | 4.0 | 9.0 | 0.00 | 0.00 | 0.00 | 62 | 1013.6 |
| 20260510144502 | 71 | 239 | 3.0 | 9.0 | 0.00 | 0.00 | 0.00 | 63 | 1013.5 |
| 20260510144104 | 70 | 227 | 4.0 | 10.0 | 0.00 | 0.00 | 0.00 | 64 | 1013.5 |
| 20260510143600 | 70 | 252 | 5.0 | 10.0 | 0.00 | 0.00 | 0.00 | 63 | 1013.4 |
| 20260510143100 | 70 | 236 | 6.0 | 10.0 | 0.00 | 0.00 | 0.00 | 63 | 1013.4 |
| 20260510142600 | 71 | 228 | 3.0 | 10.0 | 0.00 | 0.00 | 0.00 | 63 | 1013.4 |
| 20260510142059 | 70 | 216 | 4.0 | 9.0 | 0.00 | 0.00 | 0.00 | 64 | 1013.3 |
| 20260510141603 | 70 | 258 | 5.0 | 9.0 | 0.00 | 0.00 | 0.00 | 64 | 1013.5 |
| 20260510141055 | 69 | 241 | 4.0 | 10.0 | 0.00 | 0.00 | 0.00 | 65 | 1013.6 |
| 20260510140553 | 69 | 219 | 6.0 | 10.0 | 0.00 | 0.00 | 0.00 | 64 | 1013.6 |
| 20260510140054 | 69 | 285 | 2.0 | 10.0 | 0.00 | 0.00 | 0.00 | 65 | 1013.5 |
| 20260510135552 | 69 | 252 | 5.0 | 11.0 | 0.00 | 0.00 | 0.00 | 63 | 1013.6 |
| 20260510135052 | 69 | 259 | 5.0 | 10.0 | 0.00 | 0.00 | 0.00 | 65 | 1013.7 |
| 20260510134559 | 68 | 206 | 2.0 | 9.0 | 0.00 | 0.00 | 0.00 | 66 | 1013.5 |
| 20260510134049 | 68 | 234 | 2.0 | 9.0 | 0.00 | 0.00 | 0.00 | 67 | 1013.5 |
| 20260510133547 | 67 | 234 | 5.0 | 9.0 | 0.00 | 0.00 | 0.00 | 67 | 1013.5 |
| 20260510133049 | 67 | 219 | 4.0 | 12.0 | 0.00 | 0.00 | 0.00 | 68 | 1013.3 |
| 20260510132544 | 66 | 227 | 6.0 | 12.0 | 0.00 | 0.00 | 0.00 | 68 | 1013.4 |
| 20260510132045 | 66 | 215 | 5.0 | 11.0 | 0.00 | 0.00 | 0.00 | 69 | 1013.5 |
| 20260510131544 | 66 | 230 | 5.0 | 11.0 | 0.00 | 0.00 | 0.00 | 69 | 1013.4 |
| 20260510131041 | 66 | 278 | 6.0 | 10.0 | 0.00 | 0.00 | 0.00 | 69 | 1013.5 |
| 20260510130537 | 65 | 279 | 5.0 | 10.0 | 0.00 | 0.00 | 0.00 | 70 | 1013.5 |
| 20260510130035 | 65 | 282 | 5.0 | 9.0 | 0.00 | 0.00 | 0.00 | 71 | 1013.5 |
| 20260510125535 | 65 | 240 | 5.0 | 8.0 | 0.00 | 0.00 | 0.00 | 71 | 1013.4 |
| 20260510125033 | 64 | 246 | 5.0 | 8.0 | 0.00 | 0.00 | 0.00 | 72 | 1013.3 |
| 20260510124534 | 64 | 265 | 4.0 | 10.0 | 0.00 | 0.00 | 0.00 | 72 | 1013.4 |
| 20260510124032 | 64 | 215 | 6.0 | 10.0 | 0.00 | 0.00 | 0.00 | 72 | 1013.5 |
| 20260510123531 | 64 | 282 | 5.0 | 11.0 | 0.00 | 0.00 | 0.00 | 73 | 1013.4 |
| 20260510123031 | 64 | 264 | 5.0 | 11.0 | 0.00 | 0.00 | 0.00 | 73 | 1013.4 |
| 20260510122528 | 63 | 220 | 2.0 | 11.0 | 0.00 | 0.00 | 0.00 | 74 | 1013.2 |
| 20260510122027 | 63 | 242 | 5.0 | 11.0 | 0.00 | 0.00 | 0.00 | 74 | 1013.1 |
| 20260510121530 | 63 | 226 | 6.0 | 10.0 | 0.00 | 0.00 | 0.00 | 74 | 1013.1 |
| 20260510121026 | 63 | 286 | 4.0 | 7.0 | 0.00 | 0.00 | 0.00 | 75 | 1012.9 |
| 20260510120521 | 62 | 277 | 3.0 | 5.0 | 0.00 | 0.00 | 0.00 | 76 | 1012.9 |
| 20260510120018 | 62 | 238 | 1.0 | 7.0 | 0.00 | 0.00 | 0.00 | 78 | 1012.8 |
| 20260510115518 | 61 | 228 | 3.0 | 8.0 | 0.00 | 0.00 | 0.00 | 79 | 1012.9 |
| 20260510115019 | 61 | 269 | 2.0 | 10.0 | 0.00 | 0.00 | 0.00 | 78 | 1012.9 |
| 20260510114519 | 61 | 282 | 3.0 | 6.0 | 0.00 | 0.00 | 0.00 | 79 | 1012.8 |
| 20260510114015 | 60 | 291 | 3.0 | 6.0 | 0.00 | 0.00 | 0.00 | 79 | 1012.7 |
| 20260510113511 | 60 | 232 | 1.0 | 11.0 | 0.00 | 0.00 | 0.00 | 80 | 1012.6 |
| 20260510113011 | 59 | 212 | 6.0 | 11.0 | 0.00 | 0.00 | 0.00 | 81 | 1012.5 |
| 20260510112509 | 59 | 288 | 1.0 | 8.0 | 0.00 | 0.00 | 0.00 | 82 | 1012.5 |
| 20260510112008 | 59 | 269 | 3.0 | 8.0 | 0.00 | 0.00 | 0.00 | 82 | 1012.5 |
| 20260510111505 | 59 | 286 | 2.0 | 5.0 | 0.00 | 0.00 | 0.00 | 83 | 1012.6 |
| 20260510111005 | 58 | 285 | 2.0 | 5.0 | 0.00 | 0.00 | 0.00 | 83 | 1012.4 |
| 20260510110533 | 58 | 271 | 2.0 | 5.0 | 0.00 | 0.00 | 0.00 | 84 | 1012.3 |
| 20260510110037 | 58 | 308 | 1.0 | 5.0 | 0.00 | 0.00 | 0.00 | 85 | 1012.1 |
| 20260510105534 | 57 | 290 | 0.0 | 6.0 | 0.00 | 0.00 | 0.00 | 85 | 1012.0 |
| 20260510105032 | 57 | 290 | 2.0 | 6.0 | 0.00 | 0.00 | 0.00 | 86 | 1012.1 |
| 20260510104529 | 57 | 286 | 0.0 | 6.0 | 0.00 | 0.00 | 0.00 | 86 | 1012.0 |
| 20260510104028 | 56 | 291 | 1.0 | 6.0 | 0.00 | 0.00 | 0.00 | 87 | 1012.0 |
| 20260510103526 | 56 | 17 | 0.0 | 0.0 | 0.00 | 0.00 | 0.00 | 87 | 1011.9 |
| 20260510103024 | 56 | 24 | 0.0 | 0.0 | 0.00 | 0.00 | 0.00 | 87 | 1011.8 |
| 20260510102523 | 56 | 24 | 0.0 | 0.0 | 0.00 | 0.00 | 0.00 | 87 | 1011.8 |
| 20260510102023 | 56 | 24 | 0.0 | 0.0 | 0.00 | 0.00 | 0.00 | 86 | 1011.7 |
| 20260510101523 | 56 | 25 | 0.0 | 0.0 | 0.00 | 0.00 | 0.00 | 86 | 1011.6 |
| 20260510101026 | 56 | 24 | 0.0 | 0.0 | 0.00 | 0.00 | 0.00 | 86 | 1011.7 |
| 20260510100522 | 56 | 24 | 0.0 | 0.0 | 0.00 | 0.00 | 0.00 | 85 | 1011.7 |
| 20260510100030 | 56 | 24 | 0.0 | 0.0 | 0.00 | 0.00 | 0.00 | 85 | 1011.7 |
| 20260510095520 | 57 | 24 | 0.0 | 0.0 | 0.00 | 0.00 | 0.00 | 85 | 1011.7 |
| 20260510095019 | 57 | 24 | 0.0 | 0.0 | 0.00 | 0.00 | 0.00 | 85 | 1011.8 |
| 20260510094526 | 57 | 24 | 0.0 | 0.0 | 0.00 | 0.00 | 0.00 | 84 | 1011.7 |
| 20260510094017 | 57 | 24 | 0.0 | 0.0 | 0.00 | 0.00 | 0.00 | 84 | 1011.4 |
| 20260510093521 | 57 | 24 | 0.0 | 0.0 | 0.00 | 0.00 | 0.00 | 84 | 1011.3 |
| 20260510093014 | 57 | 24 | 0.0 | 0.0 | 0.00 | 0.00 | 0.00 | 84 | 1011.3 |
| 20260510092513 | 57 | 24 | 0.0 | 0.0 | 0.00 | 0.00 | 0.00 | 83 | 1011.1 |
| 20260510092014 | 58 | 24 | 0.0 | 0.0 | 0.00 | 0.00 | 0.00 | 83 | 1011.1 |
| 20260510091510 | 58 | 24 | 0.0 | 0.0 | 0.00 | 0.00 | 0.00 | 83 | 1011.2 |
| 20260510091011 | 58 | 24 | 0.0 | 0.0 | 0.00 | 0.00 | 0.00 | 83 | 1011.1 |
| 20260510090509 | 58 | 25 | 0.0 | 0.0 | 0.00 | 0.00 | 0.00 | 83 | 1011.0 |
| 20260510090008 | 58 | 25 | 0.0 | 0.0 | 0.00 | 0.00 | 0.00 | 83 | 1011.0 |
| 20260510085509 | 58 | 25 | 0.0 | 0.0 | 0.00 | 0.00 | 0.00 | 83 | 1011.0 |
| 20260510085008 | 58 | 25 | 0.0 | 1.0 | 0.00 | 0.00 | 0.00 | 83 | 1010.9 |
| 20260510084507 | 58 | 25 | 0.0 | 4.0 | 0.00 | 0.00 | 0.00 | 83 | 1010.9 |
| 20260510084007 | 59 | 63 | 0.0 | 3.0 | 0.00 | 0.00 | 0.00 | 83 | 1010.8 |
| 20260510083508 | 59 | 304 | 1.0 | 5.0 | 0.00 | 0.00 | 0.00 | 83 | 1010.8 |
| 20260510083013 | 59 | 309 | 2.0 | 6.0 | 0.00 | 0.00 | 0.00 | 83 | 1010.8 |
| 20260510082505 | 59 | 310 | 3.0 | 6.0 | 0.00 | 0.00 | 0.00 | 82 | 1010.7 |
| 20260510082004 | 59 | 294 | 0.0 | 0.0 | 0.00 | 0.00 | 0.00 | 82 | 1010.6 |
| 20260510081504 | 59 | 303 | 0.0 | 0.0 | 0.00 | 0.00 | 0.00 | 82 | 1010.6 |
| 20260510081007 | 59 | 303 | 0.0 | 0.0 | 0.00 | 0.00 | 0.00 | 82 | 1010.6 |
| 20260510080506 | 59 | 303 | 0.0 | 0.0 | 0.00 | 0.00 | 0.00 | 82 | 1010.6 |
| 20260510080003 | 59 | 302 | 0.0 | 4.0 | 0.00 | 0.00 | 0.00 | 81 | 1010.6 |
| 20260510075507 | 59 | 303 | 0.0 | 4.0 | 0.00 | 0.00 | 0.00 | 81 | 1010.5 |
| 20260510075006 | 60 | 303 | 2.0 | 4.0 | 0.00 | 0.00 | 0.00 | 81 | 1010.5 |
| 20260510074504 | 60 | 304 | 3.0 | 4.0 | 0.00 | 0.00 | 0.00 | 80 | 1010.4 |
| 20260510074006 | 60 | 308 | 2.0 | 5.0 | 0.00 | 0.00 | 0.00 | 80 | 1010.3 |
| 20260510073503 | 60 | 309 | 2.0 | 5.0 | 0.00 | 0.00 | 0.00 | 79 | 1010.3 |
| 20260510073003 | 60 | 305 | 1.0 | 3.0 | 0.00 | 0.00 | 0.00 | 79 | 1010.4 |
| 20260510072502 | 61 | 306 | 2.0 | 4.0 | 0.00 | 0.00 | 0.00 | 78 | 1010.4 |
| 20260510072002 | 61 | 308 | 1.0 | 4.0 | 0.00 | 0.00 | 0.00 | 78 | 1010.3 |
| 20260510071501 | 61 | 311 | 2.0 | 5.0 | 0.00 | 0.00 | 0.00 | 77 | 1010.3 |
| 20260510071100 | 61 | 275 | 2.0 | 7.0 | 0.00 | 0.00 | 0.00 | 77 | 1010.3 |
| 20260510070602 | 61 | 285 | 4.0 | 7.0 | 0.00 | 0.00 | 0.00 | 77 | 1010.3 |
| 20260510070502 | 61 | 269 | 4.0 | 8.0 | 0.00 | 0.00 | 0.00 | 77 | 1010.3 |
| 20260510070112 | 61 | 275 | 2.0 | 8.0 | 0.00 | 0.00 | 0.00 | 77 | 1010.3 |
| 20260510065601 | 61 | 279 | 4.0 | 8.0 | 0.00 | 0.00 | 0.00 | 77 | 1010.3 |
| 20260510065059 | 61 | 255 | 2.0 | 6.0 | 0.00 | 0.00 | 0.00 | 77 | 1010.3 |
| 20260510064603 | 61 | 286 | 2.0 | 8.0 | 0.00 | 0.00 | 0.00 | 77 | 1010.3 |
| 20260510064059 | 61 | 264 | 4.0 | 8.0 | 0.00 | 0.00 | 0.00 | 77 | 1010.3 |
| 20260510063559 | 61 | 296 | 2.0 | 5.0 | 0.00 | 0.00 | 0.00 | 78 | 1010.3 |
| 20260510063101 | 61 | 287 | 1.0 | 5.0 | 0.00 | 0.00 | 0.00 | 78 | 1010.3 |
| 20260510062558 | 61 | 279 | 2.0 | 8.0 | 0.00 | 0.00 | 0.00 | 78 | 1010.4 |
| 20260510062057 | 61 | 286 | 3.0 | 8.0 | 0.00 | 0.00 | 0.00 | 78 | 1010.3 |
| 20260510061557 | 61 | 303 | 2.0 | 6.0 | 0.00 | 0.00 | 0.00 | 78 | 1010.5 |
| 20260510061057 | 61 | 279 | 1.0 | 6.0 | 0.00 | 0.00 | 0.00 | 79 | 1010.4 |
| 20260510060557 | 61 | 284 | 2.0 | 5.0 | 0.00 | 0.00 | 0.00 | 79 | 1010.4 |
| 20260510060059 | 61 | 333 | 0.0 | 5.0 | 0.00 | 0.00 | 0.00 | 80 | 1010.4 |
| 20260510055556 | 61 | 360 | 1.0 | 5.0 | 0.00 | 0.00 | 0.00 | 80 | 1010.5 |
| 20260510055056 | 61 | 313 | 1.0 | 4.0 | 0.00 | 0.00 | 0.00 | 80 | 1010.4 |
| 20260510054602 | 61 | 319 | 0.0 | 4.0 | 0.00 | 0.00 | 0.00 | 80 | 1010.4 |
| 20260510054056 | 61 | 293 | 0.0 | 0.0 | 0.00 | 0.00 | 0.00 | 80 | 1010.4 |
| 20260510053557 | 61 | 294 | 0.0 | 0.0 | 0.00 | 0.00 | 0.00 | 80 | 1010.4 |
| 20260510053053 | 61 | 293 | 0.0 | 0.0 | 0.00 | 0.00 | 0.00 | 80 | 1010.4 |
| 20260510052552 | 61 | 294 | 0.0 | 0.0 | 0.00 | 0.00 | 0.00 | 79 | 1010.5 |
| 20260510052053 | 61 | 296 | 0.0 | 0.0 | 0.00 | 0.00 | 0.00 | 79 | 1010.5 |
| 20260510051553 | 61 | 296 | 0.0 | 0.0 | 0.00 | 0.00 | 0.00 | 79 | 1010.6 |
| 20260510051054 | 62 | 296 | 0.0 | 0.0 | 0.00 | 0.00 | 0.00 | 78 | 1010.6 |
| 20260510050552 | 62 | 296 | 0.0 | 0.0 | 0.00 | 0.00 | 0.00 | 78 | 1010.7 |
| 20260510050052 | 62 | 302 | 0.0 | 0.0 | 0.00 | 0.00 | 0.00 | 78 | 1010.7 |
| 20260510045554 | 62 | 345 | 0.0 | 0.0 | 0.00 | 0.00 | 0.00 | 78 | 1010.7 |
| 20260510045051 | 62 | 299 | 0.0 | 1.0 | 0.00 | 0.00 | 0.00 | 77 | 1010.8 |
| 20260510044600 | 62 | 299 | 0.0 | 4.0 | 0.00 | 0.00 | 0.00 | 77 | 1010.8 |
| 20260510044053 | 62 | 289 | 1.0 | 5.0 | 0.00 | 0.00 | 0.00 | 77 | 1010.8 |
| 20260510043553 | 62 | 275 | 0.0 | 4.0 | 0.00 | 0.00 | 0.00 | 77 | 1010.8 |
| 20260510043052 | 62 | 307 | 1.0 | 5.0 | 0.00 | 0.00 | 0.00 | 76 | 1010.8 |
| 20260510042549 | 62 | 309 | 3.0 | 5.0 | 0.00 | 0.00 | 0.00 | 76 | 1010.8 |
| 20260510042053 | 63 | 291 | 1.0 | 3.0 | 0.00 | 0.00 | 0.00 | 76 | 1010.8 |
| 20260510041556 | 63 | 273 | 0.0 | 4.0 | 0.00 | 0.00 | 0.00 | 75 | 1010.7 |
| 20260510041049 | 63 | 273 | 0.0 | 4.0 | 0.00 | 0.00 | 0.00 | 75 | 1010.7 |
| 20260510040551 | 63 | 243 | 2.0 | 7.0 | 0.00 | 0.00 | 0.00 | 75 | 1010.7 |
| 20260510040049 | 63 | 257 | 3.0 | 6.0 | 0.00 | 0.00 | 0.00 | 75 | 1010.8 |
| 20260510035548 | 63 | 233 | 3.0 | 6.0 | 0.00 | 0.00 | 0.00 | 74 | 1010.8 |
| 20260510035049 | 64 | 242 | 2.0 | 7.0 | 0.00 | 0.00 | 0.00 | 74 | 1010.8 |
| 20260510034549 | 64 | 302 | 2.0 | 7.0 | 0.00 | 0.00 | 0.00 | 74 | 1010.8 |
| 20260510034047 | 64 | 268 | 3.0 | 7.0 | 0.00 | 0.00 | 0.00 | 74 | 1010.9 |
| 20260510033547 | 64 | 218 | 3.0 | 7.0 | 0.00 | 0.00 | 0.00 | 74 | 1010.8 |
| 20260510033107 | 64 | 246 | 2.0 | 8.0 | 0.00 | 0.00 | 0.00 | 73 | 1010.8 |
| 20260510032548 | 64 | 257 | 2.0 | 7.0 | 0.00 | 0.00 | 0.00 | 73 | 1010.8 |
| 20260510032045 | 64 | 226 | 3.0 | 9.0 | 0.00 | 0.00 | 0.00 | 73 | 1010.7 |
| 20260510031547 | 64 | 209 | 6.0 | 9.0 | 0.00 | 0.00 | 0.00 | 73 | 1010.7 |
| 20260510031044 | 64 | 290 | 4.0 | 9.0 | 0.00 | 0.00 | 0.00 | 73 | 1010.7 |
| 20260510030543 | 65 | 224 | 4.0 | 8.0 | 0.00 | 0.00 | 0.00 | 72 | 1010.7 |
| 20260510030043 | 65 | 229 | 5.0 | 9.0 | 0.00 | 0.00 | 0.00 | 72 | 1010.7 |
| 20260510025542 | 65 | 241 | 4.0 | 9.0 | 0.00 | 0.00 | 0.00 | 72 | 1010.6 |
| 20260510025042 | 65 | 221 | 5.0 | 13.0 | 0.00 | 0.00 | 0.00 | 71 | 1010.6 |
| 20260510024544 | 65 | 240 | 6.0 | 13.0 | 0.00 | 0.00 | 0.00 | 71 | 1010.5 |
| 20260510024040 | 65 | 210 | 6.0 | 11.0 | 0.00 | 0.00 | 0.00 | 71 | 1010.5 |
| 20260510023540 | 65 | 250 | 6.0 | 11.0 | 0.00 | 0.00 | 0.00 | 71 | 1010.3 |
| 20260510023040 | 65 | 228 | 6.0 | 11.0 | 0.00 | 0.00 | 0.00 | 71 | 1010.3 |
| 20260510022537 | 65 | 234 | 5.0 | 10.0 | 0.00 | 0.00 | 0.00 | 71 | 1010.2 |
| 20260510022036 | 65 | 236 | 6.0 | 10.0 | 0.00 | 0.00 | 0.00 | 71 | 1010.1 |
| 20260510021538 | 65 | 219 | 5.0 | 9.0 | 0.00 | 0.00 | 0.00 | 70 | 1010.0 |
| 20260510021034 | 66 | 224 | 4.0 | 9.0 | 0.00 | 0.00 | 0.00 | 70 | 1009.9 |
| 20260510020534 | 66 | 209 | 6.0 | 8.0 | 0.00 | 0.00 | 0.00 | 70 | 1009.9 |
| 20260510020033 | 66 | 221 | 5.0 | 9.0 | 0.00 | 0.00 | 0.00 | 69 | 1009.8 |
| 20260510015532 | 66 | 238 | 5.0 | 9.0 | 0.00 | 0.00 | 0.00 | 69 | 1009.8 |
| 20260510015036 | 66 | 219 | 5.0 | 10.0 | 0.00 | 0.00 | 0.00 | 69 | 1009.7 |
| 20260510014534 | 66 | 225 | 6.0 | 10.0 | 0.00 | 0.00 | 0.00 | 68 | 1009.6 |
| 20260510014032 | 66 | 211 | 4.0 | 9.0 | 0.00 | 0.00 | 0.00 | 69 | 1009.5 |
| 20260510013532 | 66 | 265 | 5.0 | 9.0 | 0.00 | 0.00 | 0.00 | 69 | 1009.4 |
| 20260510013039 | 66 | 215 | 3.0 | 10.0 | 0.00 | 0.00 | 0.00 | 68 | 1009.4 |
| 20260510012530 | 66 | 220 | 5.0 | 10.0 | 0.00 | 0.00 | 0.00 | 68 | 1009.3 |
| 20260510012030 | 66 | 206 | 5.0 | 8.0 | 0.00 | 0.00 | 0.00 | 68 | 1009.2 |
| 20260510011530 | 66 | 229 | 5.0 | 9.0 | 0.00 | 0.00 | 0.00 | 68 | 1009.1 |
| 20260510011030 | 66 | 223 | 4.0 | 9.0 | 0.00 | 0.00 | 0.00 | 68 | 1009.1 |
| 20260510010529 | 67 | 232 | 4.0 | 5.0 | 0.00 | 0.00 | 0.00 | 68 | 1009.1 |
| 20260510010030 | 67 | 217 | 1.0 | 7.0 | 0.00 | 0.00 | 0.00 | 68 | 1009.0 |
| 20260510005529 | 67 | 205 | 4.0 | 9.0 | 0.00 | 0.00 | 0.00 | 67 | 1009.0 |
| 20260510005030 | 67 | 229 | 4.0 | 9.0 | 0.00 | 0.00 | 0.00 | 67 | 1008.9 |
| 20260510004529 | 67 | 206 | 5.0 | 7.0 | 0.00 | 0.00 | 0.00 | 66 | 1008.9 |
| 20260510004030 | 68 | 244 | 4.0 | 7.0 | 0.00 | 0.00 | 0.00 | 66 | 1008.8 |
| 20260510003528 | 68 | 214 | 3.0 | 9.0 | 0.00 | 0.00 | 0.00 | 65 | 1008.8 |
| 20260510003030 | 68 | 234 | 5.0 | 9.0 | 0.00 | 0.00 | 0.00 | 65 | 1008.7 |
| 20260510002525 | 69 | 231 | 4.0 | 8.0 | 0.00 | 0.00 | 0.00 | 65 | 1008.6 |
| 20260510002025 | 69 | 198 | 5.0 | 8.0 | 0.00 | 0.00 | 0.00 | 64 | 1008.5 |
| 20260510001536 | 69 | 237 | 4.0 | 9.0 | 0.00 | 0.00 | 0.00 | 64 | 1008.4 |
| 20260510001025 | 69 | 212 | 4.0 | 11.0 | 0.00 | 0.00 | 0.00 | 64 | 1008.5 |
| 20260510000525 | 69 | 211 | 6.0 | 11.0 | 0.00 | 0.00 | 0.00 | 63 | 1008.3 |
| 20260510000025 | 70 | 188 | 5.0 | 9.0 | 0.00 | 0.00 | 0.00 | 63 | 1008.4 |
| 20260509235524 | 70 | 211 | 3.0 | 10.0 | 0.00 | 0.00 | 0.00 | 62 | 1008.4 |
| 20260509235032 | 70 | 238 | 6.0 | 10.0 | 0.00 | 0.00 | 0.00 | 62 | 1008.3 |
| 20260509234524 | 70 | 241 | 5.0 | 9.0 | 0.00 | 0.00 | 0.00 | 62 | 1008.3 |
| 20260509234027 | 70 | 226 | 5.0 | 10.0 | 0.00 | 0.00 | 0.00 | 62 | 1008.3 |
| 20260509233523 | 71 | 224 | 5.0 | 11.0 | 0.00 | 0.00 | 0.00 | 61 | 1008.4 |
| 20260509233023 | 70 | 262 | 6.0 | 11.0 | 0.00 | 0.00 | 0.00 | 61 | 1008.3 |
| 20260509232526 | 71 | 236 | 6.0 | 15.0 | 0.00 | 0.00 | 0.00 | 61 | 1008.2 |
| 20260509232523 | 71 | 221 | 6.0 | 15.0 | 0.00 | 0.00 | 0.00 | 61 | 1008.2 |
| 20260509232021 | 71 | 216 | 5.0 | 15.0 | 0.00 | 0.00 | 0.00 | 61 | 1008.2 |
| 20260509231521 | 71 | 261 | 6.0 | 15.0 | 0.00 | 0.00 | 0.00 | 61 | 1008.2 |
| 20260509231020 | 71 | 221 | 8.0 | 15.0 | 0.00 | 0.00 | 0.00 | 60 | 1008.2 |
| 20260509230520 | 71 | 215 | 6.0 | 13.0 | 0.00 | 0.00 | 0.00 | 60 | 1008.1 |
| 20260509230021 | 72 | 239 | 7.0 | 13.0 | 0.00 | 0.00 | 0.00 | 60 | 1008.0 |
| 20260509225522 | 72 | 221 | 4.0 | 11.0 | 0.00 | 0.00 | 0.00 | 59 | 1008.1 |
| 20260509225520 | 72 | 220 | 4.0 | 11.0 | 0.00 | 0.00 | 0.00 | 59 | 1008.1 |
| 20260509225021 | 72 | 224 | 6.0 | 14.0 | 0.00 | 0.00 | 0.00 | 59 | 1008.0 |
| 20260509224519 | 72 | 222 | 5.0 | 14.0 | 0.00 | 0.00 | 0.00 | 59 | 1008.1 |
| 20260509224019 | 72 | 228 | 7.0 | 12.0 | 0.00 | 0.00 | 0.00 | 60 | 1008.0 |
| 20260509223519 | 71 | 189 | 3.0 | 8.0 | 0.00 | 0.00 | 0.00 | 61 | 1008.1 |
| 20260509223020 | 71 | 234 | 5.0 | 11.0 | 0.00 | 0.00 | 0.00 | 61 | 1008.0 |
| 20260509222519 | 71 | 214 | 4.0 | 12.0 | 0.00 | 0.00 | 0.00 | 61 | 1008.0 |
| 20260509222049 | 71 | 198 | 6.0 | 12.0 | 0.00 | 0.00 | 0.00 | 61 | 1008.0 |
| 20260509221551 | 71 | 221 | 7.0 | 12.0 | 0.00 | 0.00 | 0.00 | 61 | 1008.0 |
| 20260509221049 | 72 | 240 | 8.0 | 12.0 | 0.00 | 0.00 | 0.00 | 60 | 1008.0 |
| 20260509220548 | 71 | 225 | 5.0 | 12.0 | 0.00 | 0.00 | 0.00 | 61 | 1008.0 |